[[{"header":{"parameterUnit":"m.s-1","parameterCategory":1,"la1":30.2991,"la2":30.254,"lo1":-89.0895,"lo2":-89.0444,"dy":0.0017,"dx":0.0017,"nx":28,"ny":28,"refTime":"2024-07-27T09:00:00:Z","depth":0,"parameterNumber":2,"parameterNumberName":"U-component_of_WINDS"},"data":[0,0,0,0,0,0,0,0,0,0,0,0,0,0,0,0,0,0,0,0,0,0,0,0,0,0,0,0,0,0,0,0,0,0,0,0,0,0,0,0,0,0,0,0,0,0,0,0,0,0,0,0,0,0,0,0,0,0,-1.7134,-1.7134,0,-1.7205,-1.7206,-1.7207,-1.7221,-1.722,-1.7219,-1.7219,-1.7296,-1.7299,-1.7301,0,0,0,0,0,0,0,0,0,0,0,0,0,-1.7015,-1.7017,-1.7134,-1.7135,-1.7135,-1.7205,-1.7206,-1.7207,-1.7221,-1.722,-1.7219,-1.7219,-1.7295,-1.7299,-1.7302,0,0,0,0,0,0,0,0,0,0,0,0,0,-1.7074,-1.7018,-1.7133,-1.7151,-1.7153,-1.7205,-1.7206,-1.7207,-1.7221,-1.722,-1.7219,-1.7218,-1.7294,-1.7298,-1.7302,-1.7343,0,0,-1.7314,-1.7316,0,0,0,0,0,0,0,0,-1.7071,-1.7079,-1.7147,-1.7149,-1.7152,-1.7203,-1.7192,-1.7253,-1.7221,-1.7195,-1.7219,-1.7218,-1.7266,-1.7272,-1.7288,-1.7347,-1.735,-1.7314,-1.7317,-1.7318,-1.7319,0,0,0,0,0,0,0,-1.7067,-1.7076,-1.7162,-1.7148,-1.7151,-1.7156,-1.7164,-1.7204,-1.7235,-1.7197,-1.7198,-1.7206,-1.7267,-1.7284,-1.729,-1.7351,-1.7314,-1.7318,-1.732,-1.7322,-1.7449,-1.745,0,0,0,0,0,0,-1.7059,-1.7072,-1.716,-1.7164,-1.7108,-1.7159,-1.7168,-1.7188,-1.7234,-1.7241,-1.7207,-1.7207,-1.7278,-1.7285,-1.7292,-1.7344,-1.7318,-1.7322,-1.7324,-1.7448,-1.7449,-1.745,0,0,0,0,0,0,-1.7056,-1.7067,-1.7157,-1.7118,-1.713,-1.7162,-1.7184,-1.7189,-1.7206,-1.7242,-1.7248,-1.7218,-1.7277,-1.7287,-1.733,-1.7347,-1.7324,-1.7327,-1.7446,-1.7448,-1.7449,-1.7446,0,0,0,0,0,0,-1.7053,-1.7066,-1.708,-1.7119,-1.7132,-1.7192,-1.7185,-1.7191,-1.7212,-1.7212,-1.7253,-1.7259,-1.7277,-1.7324,-1.7334,-1.7351,-1.733,-1.7445,-1.7447,-1.7449,-1.7445,-1.7448,-1.745,0,0,0,0,0,-1.7049,-1.7077,-1.7081,-1.7091,-1.7151,-1.7193,-1.7201,-1.7219,-1.7213,-1.7229,-1.7252,-1.7258,-1.7343,-1.7329,-1.734,-1.7359,-1.7444,-1.7447,-1.7449,-1.7444,-1.7447,-1.745,0,0,0,0,0,0,-1.7041,-1.7083,-1.7087,-1.7129,-1.7157,-1.7195,-1.7215,-1.7222,-1.7254,-1.7253,-1.7276,-1.7286,-1.7328,-1.7348,-1.7331,-1.7401,-1.7394,-1.7398,-1.7386,-1.7389,-1.7392,-1.7386,-1.7333,0,0,0,0,0,-1.7044,-1.7073,-1.7108,-1.7142,-1.7156,-1.7183,-1.7202,-1.7214,-1.7245,-1.7257,-1.7284,-1.7315,-1.7349,-1.737,-1.7404,-1.7449,-1.7458,-1.7467,-1.7469,-1.7471,-1.7475,-1.7501,-1.7505,-1.7458,-1.7458,-1.7458,0,0,-1.7051,-1.7077,-1.7094,-1.7141,-1.7164,-1.7195,-1.7193,-1.7226,-1.7249,-1.7263,-1.7304,-1.7325,-1.7362,-1.7406,-1.7427,-1.7424,-1.749,-1.7474,-1.7475,-1.7478,-1.7504,-1.7508,-1.7512,-1.7459,-1.7459,-1.7459,0,0,-1.7079,-1.7102,-1.7132,-1.7155,-1.719,-1.7208,-1.7216,-1.7253,-1.7267,-1.7309,-1.732,-1.7349,-1.7407,-1.7432,-1.7453,-1.7492,-1.7499,-1.7503,-1.7514,-1.7539,-1.7543,-1.7546,-1.756,-1.7565,-1.7506,-1.7506,-1.7506,0,-1.7083,-1.7128,-1.7147,-1.7179,-1.72,-1.7212,-1.7244,-1.7267,-1.7311,-1.7326,-1.7322,-1.7395,-1.742,-1.7471,-1.748,-1.7497,-1.7507,-1.7497,-1.7541,-1.7544,-1.7548,-1.7561,-1.7567,-1.7506,-1.7506,-1.7506,-1.7506,0,-1.7132,-1.7164,-1.7185,-1.7225,-1.7249,-1.7281,-1.7306,-1.7327,-1.7338,-1.7357,-1.7401,-1.7432,-1.7472,-1.7485,-1.7496,-1.7538,-1.7535,-1.7536,-1.7528,-1.7552,-1.7565,-1.7571,-1.7507,-1.7507,-1.7506,-1.7506,0,0,-1.7157,-1.7208,-1.7215,-1.7234,-1.7274,-1.7299,-1.7333,-1.737,-1.7389,-1.742,-1.7449,-1.7498,-1.7499,-1.7522,-1.7537,-1.7559,-1.7588,-1.7557,-1.7558,-1.7561,-1.7636,-1.7635,-1.764,-1.7593,-1.7594,-1.7595,-1.7633,0,-1.7189,-1.7246,-1.7265,-1.7313,-1.7343,-1.7356,-1.7386,-1.7414,-1.7433,-1.7463,-1.7485,-1.7519,-1.7518,-1.7532,-1.7555,-1.7579,-1.7603,-1.7577,-1.7621,-1.7623,-1.7611,-1.7647,-1.7646,-1.768,-1.7638,-1.7639,-1.764,0,-1.7234,-1.7264,-1.7315,-1.7352,-1.7365,-1.7391,-1.7427,-1.7455,-1.7488,-1.7501,-1.7527,-1.754,-1.7577,-1.7568,-1.762,-1.7602,-1.7622,-1.7637,-1.7639,-1.7643,-1.7632,-1.7652,-1.7691,-1.7696,-1.7648,-1.7648,-1.7647,0,-1.7246,-1.73,-1.7337,-1.7353,-1.7397,-1.7415,-1.7434,-1.7467,-1.7488,-1.7521,-1.7535,-1.7573,-1.7593,-1.7622,-1.7645,-1.7637,-1.7696,-1.7689,-1.7708,-1.7708,-1.7719,-1.7718,-1.7761,-1.7733,-1.7733,-1.7733,-1.7733,0,-1.728,-1.7311,-1.7343,-1.7366,-1.7402,-1.7424,-1.7459,-1.7479,-1.7508,-1.7537,-1.7552,-1.7578,-1.7608,-1.7639,-1.7658,-1.7698,-1.7708,-1.772,-1.7724,-1.7718,-1.7716,-1.7731,-1.7729,-1.7734,-1.7734,-1.7733,-1.7733,0,-1.73,-1.7322,-1.7364,-1.7402,-1.7412,-1.7437,-1.747,-1.7494,-1.7514,-1.755,-1.756,-1.7592,-1.7629,-1.7656,-1.7705,-1.7717,-1.7761,-1.7766,-1.7749,-1.7751,-1.7769,-1.7767,-1.7822,-1.7831,-1.7797,-1.7797,-1.7797,0,-1.7319,-1.7343,-1.7383,-1.7402,-1.7421,-1.7452,-1.7474,-1.7497,-1.752,-1.756,-1.758,-1.7618,-1.7649,-1.771,-1.7738,-1.7776,-1.7782,-1.7799,-1.7787,-1.7781,-1.7782,-1.778,-1.7782,-1.78,-1.78,-1.7801,-1.7801,0,-1.7352,-1.7362,-1.7392,-1.7426,-1.7452,-1.748,-1.7509,-1.7524,-1.7553,-1.7578,-1.7615,-1.764,-1.7689,-1.7728,-1.7768,-1.7791,-1.7801,-1.7804,-1.7811,-1.7804,-1.7793,-1.7799,-1.7753,-1.7803,-1.7802,-1.7802,-1.7802,-1.7802,-1.7373,-1.7394,-1.7426,-1.7459,-1.7483,-1.7509,-1.7533,-1.7556,-1.7587,-1.7628,-1.764,-1.768,-1.7714,-1.777,-1.7792,-1.7825,-1.7824,-1.7833,-1.7835,-1.7837,-1.7837,-1.7788,-1.7832,-1.7832,-1.7832,-1.7832,-1.7832,0,-1.7406,-1.7427,-1.7457,-1.7496,-1.7522,-1.7528,-1.7561,-1.7583,-1.7617,-1.7647,-1.7678,-1.7722,-1.7759,-1.7791,-1.783,-1.785,-1.7856,-1.786,-1.7858,-1.7863,-1.7836,-1.7826,-1.7854,-1.7854,-1.7854,-1.7854,-1.7854,-1.7854,-1.7426,-1.7463,-1.7477,-1.7527,-1.7548,-1.7585,-1.7604,-1.7629,-1.7653,-1.7701,-1.7731,-1.7751,-1.7783,-1.7824,-1.786,-1.7868,-1.7882,-1.7885,-1.7894,-1.7868,-1.7865,-1.7863,-1.7854,-1.7887,-1.7888,-1.7919,-1.792,-1.792]},{"header":{"parameterUnit":"m.s-1","parameterCategory":1,"la1":30.2991,"la2":30.254,"lo1":-89.0895,"lo2":-89.0444,"dy":0.0017,"dx":0.0017,"nx":28,"ny":28,"refTime":"2024-07-27T09:00:00:Z","depth":0,"parameterNumber":3,"parameterNumberName":"V-component_of_WINDS"},"data":[0,0,0,0,0,0,0,0,0,0,0,0,0,0,0,0,0,0,0,0,0,0,0,0,0,0,0,0,0,0,0,0,0,0,0,0,0,0,0,0,0,0,0,0,0,0,0,0,0,0,0,0,0,0,0,0,0,0,3.608,3.6081,0,3.6158,3.6159,3.6159,3.618,3.6179,3.6179,3.6178,3.6259,3.6261,3.6264,0,0,0,0,0,0,0,0,0,0,0,0,0,3.5949,3.5952,3.608,3.6081,3.6082,3.6157,3.6159,3.616,3.618,3.6179,3.6179,3.6178,3.6258,3.6261,3.6264,0,0,0,0,0,0,0,0,0,0,0,0,0,3.6014,3.5952,3.608,3.6101,3.6104,3.6157,3.6159,3.616,3.618,3.6179,3.6179,3.6178,3.6257,3.6261,3.6265,3.6303,0,0,3.6276,3.6278,0,0,0,0,0,0,0,0,3.6011,3.6019,3.6097,3.61,3.6103,3.6158,3.6142,3.6208,3.618,3.6151,3.6178,3.6178,3.6226,3.6232,3.6249,3.6307,3.631,3.6277,3.6279,3.6281,3.6282,0,0,0,0,0,0,0,3.6006,3.6016,3.6111,3.6098,3.6102,3.6107,3.6115,3.6155,3.6192,3.6154,3.6155,3.6164,3.6228,3.6245,3.6251,3.6311,3.6277,3.628,3.6283,3.6284,3.6404,3.6405,0,0,0,0,0,0,3.5998,3.6012,3.6108,3.6113,3.6054,3.611,3.6119,3.6141,3.6191,3.6198,3.6165,3.6165,3.6239,3.6246,3.6254,3.6302,3.6281,3.6284,3.6287,3.6404,3.6405,3.6406,0,0,0,0,0,0,3.5995,3.6006,3.6105,3.6063,3.6076,3.6113,3.6137,3.6143,3.616,3.62,3.6206,3.6175,3.6238,3.6248,3.629,3.6305,3.6286,3.629,3.6403,3.6404,3.6405,3.6398,0,0,0,0,0,0,3.5991,3.6005,3.602,3.6063,3.6078,3.614,3.6138,3.6145,3.6167,3.6168,3.6212,3.6218,3.6238,3.6284,3.6294,3.631,3.6293,3.6401,3.6403,3.6405,3.6397,3.6399,3.6401,0,0,0,0,0,3.5986,3.6015,3.6021,3.6032,3.6097,3.6141,3.615,3.6172,3.6168,3.6183,3.6208,3.6217,3.6301,3.6289,3.63,3.6317,3.6401,3.6403,3.6405,3.6397,3.6399,3.64,0,0,0,0,0,0,3.5973,3.6021,3.6028,3.6071,3.6102,3.6144,3.6165,3.6174,3.6207,3.6206,3.6233,3.6243,3.6283,3.6304,3.6289,3.6356,3.6351,3.6355,3.6341,3.6344,3.6345,3.6339,3.6296,0,0,0,0,0,3.5975,3.6006,3.6047,3.6081,3.6096,3.6128,3.6148,3.6162,3.6195,3.6208,3.6237,3.6268,3.6302,3.6324,3.6357,3.64,3.641,3.6417,3.6419,3.642,3.6424,3.6448,3.6452,3.6412,3.6412,3.6412,0,0,3.598,3.601,3.6028,3.6079,3.6105,3.6137,3.6138,3.6172,3.6196,3.6214,3.6255,3.6277,3.6314,3.6357,3.6377,3.6376,3.6437,3.6423,3.6423,3.6426,3.645,3.6454,3.6457,3.6413,3.6413,3.6413,0,0,3.6005,3.6031,3.6062,3.6087,3.6126,3.6146,3.6154,3.6195,3.621,3.6252,3.6265,3.6295,3.6352,3.6378,3.6399,3.6433,3.6442,3.6443,3.6452,3.6475,3.6478,3.6481,3.6494,3.6498,3.6446,3.6446,3.6446,0,3.6006,3.6055,3.6077,3.611,3.6132,3.6149,3.6181,3.6205,3.6252,3.6267,3.6264,3.6337,3.6363,3.6412,3.642,3.6437,3.6446,3.6439,3.6476,3.6479,3.6482,3.6494,3.6499,3.6446,3.6446,3.6446,3.6446,0,3.6054,3.6087,3.6108,3.6153,3.6177,3.621,3.6238,3.626,3.6272,3.6293,3.6335,3.6367,3.6407,3.642,3.6432,3.6471,3.6469,3.6471,3.6466,3.6486,3.6497,3.6502,3.6446,3.6446,3.6446,3.6446,0,0,3.6074,3.613,3.6137,3.6158,3.6201,3.6227,3.626,3.6299,3.6317,3.6349,3.6378,3.6426,3.6428,3.6452,3.6467,3.6488,3.6513,3.6487,3.6489,3.6491,3.6557,3.6555,3.656,3.6519,3.652,3.652,3.6554,0,3.6104,3.6164,3.6185,3.6234,3.6265,3.6281,3.631,3.6339,3.6359,3.6389,3.6411,3.6445,3.6445,3.6459,3.648,3.6505,3.6526,3.6503,3.6546,3.6547,3.6536,3.6567,3.6565,3.6595,3.6559,3.6559,3.656,0,3.6148,3.618,3.6232,3.6271,3.6285,3.631,3.6347,3.6375,3.6409,3.6422,3.6448,3.6462,3.6498,3.649,3.654,3.6523,3.6542,3.6557,3.6558,3.6564,3.6555,3.6573,3.6606,3.661,3.6568,3.6567,3.6566,0,3.6158,3.6214,3.6252,3.6269,3.6315,3.6333,3.6353,3.6386,3.6408,3.644,3.6454,3.6491,3.651,3.6538,3.6562,3.6554,3.6609,3.6604,3.6621,3.6621,3.6632,3.6631,3.6669,3.6644,3.6644,3.6643,3.6643,0,3.619,3.6221,3.6257,3.628,3.6316,3.634,3.6374,3.6395,3.6424,3.6453,3.6468,3.6494,3.6523,3.6553,3.6572,3.661,3.6619,3.6631,3.6635,3.663,3.6628,3.6643,3.6641,3.6645,3.6644,3.6644,3.6644,0,3.6207,3.6232,3.6275,3.6315,3.6325,3.635,3.6384,3.6408,3.6428,3.6463,3.6473,3.6506,3.6542,3.6567,3.6614,3.6626,3.6667,3.6672,3.6656,3.6658,3.6675,3.6673,3.6723,3.6731,3.67,3.67,3.67,0,3.6226,3.6251,3.6293,3.6312,3.6332,3.6364,3.6386,3.641,3.6433,3.6473,3.6491,3.6528,3.6559,3.6616,3.6644,3.668,3.6686,3.6701,3.6691,3.6685,3.6686,3.6685,3.6687,3.6702,3.6702,3.6703,3.6703,0,3.6258,3.6269,3.63,3.6335,3.6361,3.639,3.6419,3.6434,3.6464,3.6488,3.6525,3.6549,3.6596,3.6633,3.6671,3.6692,3.6703,3.6705,3.6711,3.6706,3.6696,3.6702,3.666,3.6704,3.6704,3.6704,3.6704,3.6704,3.6277,3.6299,3.6332,3.6366,3.639,3.6417,3.6441,3.6464,3.6495,3.6535,3.6548,3.6586,3.6619,3.6671,3.6693,3.6723,3.6723,3.6731,3.6734,3.6735,3.6735,3.669,3.673,3.673,3.673,3.673,3.673,0,3.631,3.6331,3.6362,3.6402,3.6429,3.6436,3.6468,3.649,3.6523,3.6553,3.6583,3.6625,3.666,3.6691,3.6728,3.6746,3.6752,3.6755,3.6754,3.6759,3.6734,3.6725,3.675,3.675,3.675,3.675,3.675,3.675,3.633,3.6368,3.6383,3.6433,3.6454,3.6491,3.6509,3.6534,3.6558,3.6604,3.6633,3.6653,3.6683,3.6722,3.6755,3.6763,3.6776,3.6778,3.6787,3.6763,3.6761,3.6758,3.675,3.678,3.678,3.681,3.681,3.681]}]]